Find Starlink 31685

NORAD ID: 59578 Int'l Des: 2024-076 Owner: SPXS Country: US Constellation: starlink operational
LEOCIRCULAR

Current View

Loading 3D Globe...

About Starlink 31685

Starlink 31685 (NORAD 59578) is a starlink constellation satellite (v2 mini) launched Apr 23, 2024 by SPXS of US. It operates in LEO, CIRCULAR orbit with a mass of 730.00 kg.

Upcoming Passes

Passes for default location (London). Set your location on the main map for personalized predictions.

Altitude History

Loading altitude history...

Two-Line Element Set

1 59578U 24076Q 26237.75803600 -.00001368 00000-0 -40221-4 0 9995
2 59578 43.0024 133.8272 0000987 268.2335 91.8404 15.27576336132364
Epoch: Aug 25, 2026 • Age: 6 hours

Current Status

Altitude 482.3 km
Apogee / Perigee N/A
Velocity 7.63 km/s
Sub-Earth Point 6.71°N, 157.57°E
Launch Date Apr 23, 2024
Age 2.3 years
Type internet

Technical Details

Classification Payload
Mass 730.00 kg
Dry Mass 700.00 kg
Total Mass 730.00 kg
Length 0.30 m
Diameter 4.10 m
Span 29.00 m
Shape Box + pan
Manufacturer SPXS
Bus Type Starlink V2M
Phase Status In Orbit
Owner/State SPXS/US

Most Searched